CW4541 Weather Reports


time (UTC)temp
C
wind
direction
speed
KPH
gust
KPH
rain 1hr
cm
rain 24hr
cm
rain mn
cm
humidity
%
barometer
mb
20260902110605 10 213 0.0 1.6 0.00 0.00 0.00 73 1023.3
20260902110110 10 213 0.0 1.6 0.00 0.00 0.00 73 1023.3
20260902100605 11 210 0.0 0.0 0.00 0.03 0.00 71 1023.1
20260902100111 11 212 0.0 0.0 0.00 0.03 0.00 70 1023.1
20260902090605 12 229 0.0 0.0 0.00 0.03 0.00 66 1023.1
20260902090110 12 231 0.0 0.0 0.00 0.03 0.00 65 1023.2
20260902080605 14 38 0.0 0.0 0.00 0.03 0.00 59 1023.3
20260902080111 14 39 0.0 0.0 0.00 0.03 0.00 59 1023.4
20260902070605 14 38 0.0 0.0 0.00 0.03 0.00 58 1023.4
20260902070110 14 36 0.0 0.0 0.00 0.03 0.00 58 1023.4
20260902060110 15 181 0.0 1.6 0.00 0.03 0.00 55 1024.0
20260902050605 14 187 0.0 0.0 0.00 0.03 0.03 55 1023.9
20260902050112 14 188 0.0 0.0 0.00 0.03 0.03 54 1023.9
20260902020607 16 21 0.0 0.0 0.00 0.03 0.03 37 1023.2
20260902010607 21 17 1.6 9.7 0.00 0.03 0.03 22 1023.1
20260902010113 21 20 1.6 9.7 0.00 0.03 0.03 22 1023.2
20260902000606 23 222 3.2 14.5 0.00 0.03 0.03 20 1023.6
20260902000111 23 199 1.6 9.7 0.00 0.03 0.03 21 1023.6
20260901230606 23 197 1.6 11.3 0.00 0.03 0.03 22 1023.8
20260901230112 23 216 1.6 12.9 0.00 0.03 0.03 22 1023.8
20260901220605 23 207 3.2 9.7 0.00 0.03 0.03 21 1024.5
20260901220112 23 234 3.2 11.3 0.00 0.03 0.03 22 1024.7
20260901210606 23 24 3.2 12.9 0.00 0.03 0.03 28 1025.2
20260901200606 23 20 3.2 19.3 0.00 0.03 0.03 31 1026.3
20260901200112 23 21 3.2 19.3 0.00 0.03 0.03 32 1026.3
20260901190606 22 18 3.2 14.5 0.00 0.03 0.03 40 1026.8
20260901190111 21 18 1.6 12.9 0.00 0.03 0.03 41 1026.8
20260901180605 20 15 3.2 14.5 0.00 0.18 0.03 47 1027.6
20260901170605 19 15 1.6 9.7 0.00 0.43 0.03 52 1027.9
20260901170111 20 17 1.6 8.0 0.00 0.43 0.03 53 1027.8
20260901160112 17 15 1.6 8.0 0.00 0.48 0.03 61 1028.2
20260901150606 15 15 1.6 9.7 0.00 0.48 0.03 69 1028.1
20260901150111 15 15 1.6 4.8 0.00 0.48 0.03 71 1028.2
20260901140606 10 127 0.0 8.0 0.00 0.48 0.03 85 1028.3
20260901140111 10 126 0.0 9.7 0.00 0.48 0.03 85 1028.3
20260901130606 8 90 0.0 0.0 0.00 0.48 0.03 84 1028.2
20260901130111 8 90 0.0 0.0 0.00 0.48 0.03 84 1028.1